Home   Weather   Barsinghausen   Past weeks

Flag for Germany Past Weather in Barsinghausen, Lower Saxony, Germany — Yesterday and Last 2 Weeks

46 °F


Feels Like: 44 °F
Forecast: 39 / 47 °F
Wind: 6 mph from East

Location: Wunstorf Airport

Current Time: Oct 25, 2016 at 5:20:01 AM

Latest Report: Oct 25, 2016 at 4:20 AM

Visibility: N/A

Pressure: 30.04 "Hg

Humidity: 93%

Dew Point: 45 °F

Location of BarsinghausenLocation

Past Weather in Barsinghausen — Graph


Barsinghausen Temperature Yesterday

Maximum temperature yesterday: 46 °F (at 2:20 PM)
Minimum temperature yesterday: 37 °F (at 1:20 AM)
Average temperature yesterday: 43 °F

High & Low Weather Summary for the Past Weeks

High63 °F (Oct 16, 2:20 PM)100% (Oct 10, 7:20 AM)30.24 "Hg (Oct 10, 7:20 AM)
Low34 °F (Oct 23, 8:20 AM)50% (Oct 23, 2:20 PM)29.74 "Hg (Oct 15, 6:20 AM)
Average47 °F88%30.03 "Hg
* Reported Oct 10 3:20 AM — Oct 25 3:20 AM, Barsinghausen, Weather by CustomWeather, © 2016

Note: Actual official high and low records may vary slightly from our data, if they occured in-between our weather recording intervals... More about our weather records


Barsinghausen Weather History for the Previous 24 Hours

Scroll right to see more
Time TempWeatherWind HumidityBarometerVisibility
3:20 AM
Tue, Oct 25
46 °FCool.7 mph93%30.04 "HgN/A
2:20 AM46 °FCool.9 mph93%30.01 "HgN/A
1:20 AM46 °FCool.6 mph93%30.04 "HgN/A
12:20 AM46 °FCool.9 mph93%30.01 "HgN/A
11:20 PM
Mon, Oct 24
46 °FCool.8 mph93%30.01 "HgN/A
10:20 PM45 °FQuite cool.9 mph100%30.01 "HgN/A
9:20 PM45 °FQuite cool.8 mph100%30.01 "HgN/A
8:20 PM45 °FQuite cool.9 mph93%30.01 "HgN/A
7:20 PM45 °FRain. Fog.13 mph93%30.01 "Hg3 mi
6:20 PM45 °FRain. Fog.12 mph93%30.01 "Hg2 mi
5:20 PM45 °FRain. Fog.13 mph93%29.98 "Hg2 mi
4:20 PM46 °FRain. Fog.12 mph87%29.98 "Hg2 mi
3:56 PM46 °FLight rain. Fog.10 mph87%29.98 "Hg3 mi
3:20 PM46 °FBroken clouds.12 mph87%29.98 "Hg4 mi
2:20 PM46 °FBroken clouds.9 mph87%29.98 "Hg4 mi
1:20 PM45 °FPartly sunny.12 mph93%29.98 "Hg4 mi
12:20 PM45 °FFog.12 mph93%30.01 "Hg3 mi
11:20 AM45 °FFog.9 mph87%30.01 "Hg2 mi
11:04 AM45 °FFog.9 mph93%30.01 "Hg2 mi
10:20 AM43 °FFog.9 mph93%30.01 "Hg1 mi
9:20 AM41 °FFog.6 mph100%30.01 "Hg1 mi
8:20 AM41 °FFog.7 mph93%30.01 "Hg1 mi
7:20 AM41 °FFog.8 mph93%29.98 "Hg1 mi
6:20 AM39 °FFog.8 mph100%29.98 "Hg0 mi
5:20 AM39 °FFog.7 mph100%29.98 "Hg0 mi
Weather by CustomWeather, © 2016

See weather overviewHow to use our weather pages